Location: Caltech
(34.1382°N, 118.1253°W)
Time: 19:15:53
(UTC-07:00)

Cosmos 1833 - Visible Passes

Search period start: 29 May 2015 00:00
Search period end: 08 June 2015 00:00
Orbit: 839 x 860 km, 70.9° (Epoch: 28 May)

Date Brightness Start Highest point End Pass type
(mag) Time Alt. Az. Time Alt. Az. Time Alt. Az.
31 May 6.6 05:02:24 10° SSE 05:06:22 21° ESE 05:10:34 10° NE visible
01 Jun 6.5 04:49:45 10° SSE 04:53:42 21° ESE 04:57:52 10° NE visible
02 Jun 6.5 04:37:06 10° SSE 04:41:01 20° ESE 04:45:10 10° NE visible
03 Jun 6.5 04:24:27 10° SE 04:28:21 20° ESE 04:32:29 10° NE visible
04 Jun 6.4 04:11:47 10° SE 04:15:40 20° ESE 04:19:47 10° NE visible
05 Jun 6.4 03:59:09 10° SE 04:03:00 20° ESE 04:07:05 10° NE visible
06 Jun 6.3 03:46:30 10° SE 03:50:19 20° ESE 03:54:23 10° NE visible
07 Jun 6.3 03:33:51 10° SE 03:37:39 19° ESE 03:41:41 10° NE visible
